"Time","Temp","Dewpoint","Humidity","Pressure","Direction","Speed","Gust","Precip","PrecipRate"
"00:04:59","57.8","40.5","52.3","30.30","337","4.9","13.2","0.00","0.00"
"00:09:57","57.8","40.1","51.6","30.30","329","5.3","14.4","0.00","0.00"
"00:14:59","57.7","39.2","49.9","30.30","336","9.4","19.6","0.00","0.00"
"00:19:56","57.7","39.3","50.2","30.30","334","8","19.6","0.00","0.00"
"00:24:58","57.5","39","49.8","30.30","338","7.5","15","0.00","0.00"
"00:29:56","57.4","38.3","48.8","30.30","322","7.5","15","0.00","0.00"
"00:34:57","57.3","38.5","49.3","30.30","322","4.8","13.2","0.00","0.00"
"00:39:59","57.1","38","48.8","30.30","352","2.7","8.4","0.00","0.00"
"00:44:56","56.8","37.7","48.9","30.31","342","4.1","12","0.00","0.00"
"00:49:58","56.4","37.5","49.1","30.31","326","3.3","11.5","0.00","0.00"
"00:54:56","56.2","37.3","49","30.31","356","3.8","13.2","0.00","0.00"
"00:59:57","56.1","36.9","48.5","30.31","0","6","17.3","0.00","0.00"
"01:04:58","56","37","48.8","30.31","346","6.2","13.2","0.00","0.00"
"01:09:56","55.9","37.2","49.4","30.31","342","5.3","12.7","0.00","0.00"
"01:14:58","55.8","37.7","50.6","30.32","4","2.8","13.2","0.00","0.00"
"01:19:57","55.6","37.7","51","30.32","339","2.1","12.7","0.00","0.00"
"01:24:59","55.4","37.7","51.3","30.32","337","4.9","17.3","0.00","0.00"
"01:29:57","55.3","38","52","30.32","347","3.7","8.4","0.00","0.00"
"01:34:59","55.1","37.9","52.2","30.32","337","4.8","15","0.00","0.00"
"01:39:57","55","38.2","53","30.32","324","3.5","7.2","0.00","0.00"
"01:44:58","54.7","38.1","53.3","30.32","333","2.6","7.2","0.00","0.00"
"01:49:56","54.4","37.9","53.5","30.32","343","3","7.2","0.00","0.00"
"01:54:58","54.2","37.9","54.1","30.32","347","2.2","4.8","0.00","0.00"
"01:59:56","54","38.2","55","30.33","344","3","10.8","0.00","0.00"
"02:04:57","53.8","38","55","30.33","330","3.1","10.4","0.00","0.00"
"02:09:56","53.9","38.2","55.2","30.33","330","1.7","4.8","0.00","0.00"
"02:14:58","53.9","38.2","55.2","30.33","337","2.4","8.4","0.00","0.00"
"02:19:56","54","38.1","54.8","30.33","334","2.4","7.2","0.00","0.00"
"02:24:57","54.1","38","54.5","30.33","352","1.6","6","0.00","0.00"
"02:29:58","54.1","38.2","54.8","30.33","342","2.3","6","0.00","0.00"
"02:34:56","54.1","38.4","55.2","30.33","326","1.5","4.8","0.00","0.00"
"02:39:58","54.1","38","54.5","30.33","324","1.8","4.8","0.00","0.00"
"02:44:56","54","37.8","54.2","30.33","336","1.4","3.6","0.00","0.00"
"02:49:58","54","37.6","53.9","30.32","350","1.8","6","0.00","0.00"
"02:54:59","54","37.6","53.8","30.32","348","1.4","7.2","0.00","0.00"
"02:59:57","54","37.2","53.1","30.32","343","2.5","6.9","0.00","0.00"
"03:04:59","54","36.9","52.3","30.31","348","3.7","8.4","0.00","0.00"
"03:09:59","54.1","37","52.2","30.31","5","1","3.6","0.00","0.00"
"03:14:58","54","37.5","53.5","30.31","347","0.7","2.4","0.00","0.00"
"03:19:56","53.9","37.3","53.4","30.31","346","2","4.8","0.00","0.00"
"03:24:57","53.9","37.2","53.2","30.31","348","2.9","9.6","0.00","0.00"
"03:29:59","53.9","36.7","52","30.31","340","4","9.2","0.00","0.00"
"03:34:57","54","37","52.5","30.31","350","1.9","6","0.00","0.00"
"03:39:59","54","37.1","52.9","30.31","345","1.6","4.8","0.00","0.00"
"03:44:59","53.9","36.8","52.3","30.33","326","2.6","8.4","0.00","0.00"
"03:49:56","54","36.9","52.4","30.33","356","2.1","6","0.00","0.00"
"03:54:59","53.9","37","52.6","30.33","17","0.7","3.5","0.00","0.00"
"03:59:57","53.9","36.7","52","30.33","32","0.7","3.6","0.00","0.00"
"04:04:58","53.9","37","52.7","30.32","336","1.2","4.8","0.00","0.00"
"04:09:57","53.8","36.7","52.3","30.32","325","1.3","4.8","0.00","0.00"
"04:14:59","53.8","36.4","51.8","30.32","326","3.1","7.2","0.00","0.00"
"04:19:58","53.8","36.1","51","30.32","335","4.2","8.4","0.00","0.00"
"04:24:57","53.9","36.6","51.8","30.32","311","2.7","9.6","0.00","0.00"
"04:29:58","53.8","36.3","51.4","30.33","328","2.6","10.8","0.00","0.00"
"04:34:56","53.8","36.2","51.2","30.33","353","2.4","10.8","0.00","0.00"
"04:39:58","53.8","36.3","51.4","30.33","336","1.9","7.2","0.00","0.00"
"04:44:59","53.7","36.7","52.5","30.34","339","2.6","6.9","0.00","0.00"
"04:49:56","53.6","36.4","52","30.34","344","3.4","7.2","0.00","0.00"
"04:54:57","53.5","37.1","53.7","30.34","342","4.2","8.4","0.00","0.00"
"04:59:58","53.3","36.7","53.2","30.34","342","1.9","7.2","0.00","0.00"
"05:04:59","53.2","36.3","52.6","30.33","341","4.5","12","0.00","0.00"
"05:09:58","53.2","36.1","52.2","30.33","345","3.3","10.4","0.00","0.00"
"05:14:56","53.2","36.1","52.3","30.33","336","4.3","14.4","0.00","0.00"
"05:19:57","53.1","36.4","52.9","30.33","317","3.7","7.2","0.00","0.00"
"05:24:58","53.1","35.9","52","30.33","334","4","10.8","0.00","0.00"
"05:29:59","53.1","36.1","52.3","30.34","334","3.1","7.2","0.00","0.00"
"05:34:56","53.1","36.6","53.5","30.34","302","4.2","8.4","0.00","0.00"
"05:39:58","52.9","36.2","52.9","30.34","334","4","10.8","0.00","0.00"
"05:44:59","52.9","35.7","52","30.35","344","3.2","10.4","0.00","0.00"
"05:49:56","52.9","35.5","51.7","30.35","346","3.1","10.8","0.00","0.00"
"05:54:57","53","35.3","51.1","30.35","340","4.8","13.2","0.00","0.00"
"05:59:59","53","35.2","50.9","30.35","338","5","10.8","0.00","0.00"
"06:04:55","52.9","35.7","52","30.35","339","2.9","6","0.00","0.00"
"06:09:56","52.9","35.9","52.5","30.35","343","2","8.4","0.00","0.00"
"06:14:58","52.7","35.9","52.6","30.36","341","3.4","10.8","0.00","0.00"
"06:19:59","52.6","35.5","52","30.36","347","2.8","6.9","0.00","0.00"
"06:24:56","52.6","35.5","52.1","30.36","331","3.3","10.8","0.00","0.00"
"06:29:57","52.6","34.9","50.7","30.36","343","4","12","0.00","0.00"
"06:34:58","52.7","35.6","52.2","30.36","333","3.6","8.4","0.00","0.00"
"06:39:59","52.6","35.6","52.2","30.36","344","3.6","9.6","0.00","0.00"
"06:44:57","52.5","35.9","53.2","30.36","341","4.9","10.8","0.00","0.00"
"06:49:58","52.4","36.3","54.3","30.36","341","2.9","8.4","0.00","0.00"
"06:54:56","52.2","36.8","55.6","30.36","354","3","8.4","0.00","0.00"
"06:59:58","52","36.8","56","30.38","338","1.6","4.8","0.00","0.00"
"07:04:59","51.9","36.9","56.5","30.38","348","0.8","6","0.00","0.00"
"07:09:58","51.8","36.8","56.5","30.38","350","1.9","4.8","0.00","0.00"
"07:14:57","51.8","36.8","56.5","30.38","337","1.3","4.8","0.00","0.00"
"07:19:59","51.8","36.5","55.9","30.38","326","1.9","4.8","0.00","0.00"
"07:24:56","51.8","36.6","56","30.38","319","1.9","3.6","0.00","0.00"
"07:29:57","51.9","36","54.5","30.39","305","2.3","4.8","0.00","0.00"
"07:34:58","52","36.4","55.2","30.39","314","0.7","2.4","0.00","0.00"
"07:39:56","52","36.9","56.3","30.39","314","0.1","2.4","0.00","0.00"
"07:44:57","52","36.3","54.9","30.39","314","1.4","3.6","0.00","0.00"
"07:49:58","52","36.2","54.7","30.39","348","1.7","4.8","0.00","0.00"
"07:54:56","52","36.5","55.4","30.39","349","1.4","7.2","0.00","0.00"
"07:59:57","52","36","54.2","30.40","346","1.4","3.6","0.00","0.00"
"08:04:59","52.1","35.4","52.8","30.40","341","0.9","4.8","0.00","0.00"
"08:09:58","52.1","35.5","53","30.40","350","2.3","6","0.00","0.00"
"08:14:56","52.1","35.8","53.6","30.41","348","1.5","7.2","0.00","0.00"
"08:19:56","52.1","35.1","52.3","30.41","337","2.8","6.9","0.00","0.00"
"08:24:57","52.1","35.1","52.2","30.41","338","3.4","9.6","0.00","0.00"
"08:29:58","52.1","35.2","52.3","30.41","334","2.7","10.8","0.00","0.00"
"08:34:59","52.1","35","52","30.41","1","2","8.4","0.00","0.00"
"08:39:57","52.1","35.3","52.7","30.41","345","0.9","8.1","0.00","0.00"
"08:44:58","52.1","35.2","52.3","30.41","341","1.6","6","0.00","0.00"
"08:49:59","52.1","35.4","52.8","30.40","356","2.6","7.2","0.00","0.00"
"08:54:56","52.2","34.9","51.5","30.40","340","4.3","10.8","0.00","0.00"
"08:59:57","52.2","34.2","50.2","30.41","351","3.7","10.4","0.00","0.00"
"09:04:57","52.3","34.2","50.1","30.41","351","3.4","8.4","0.00","0.00"
"09:09:56","52.3","34.3","50.2","30.41","342","2.9","9.6","0.00","0.00"
"09:14:58","52.3","32.5","46.7","30.41","335","5.6","16.1","0.00","0.00"
"09:19:59","52.3","32.4","46.6","30.41","337","3.9","10.4","0.00","0.00"
"09:24:56","52.2","32.3","46.5","30.41","346","4.4","12","0.00","0.00"
"09:29:58","52.3","32.7","47.2","30.43","333","2.1","8.1","0.00","0.00"
"09:34:59","52.4","32.4","46.5","30.43","335","3.6","8.4","0.00","0.00"
"09:39:57","52.5","31.3","44.3","30.43","339","4","12","0.00","0.00"
"09:44:58","52.5","31.6","44.8","30.43","357","4.4","8.4","0.00","0.00"
"09:49:56","52.3","31.4","44.6","30.43","279","3.7","9.6","0.00","0.00"
"09:54:56","52.1","31.4","44.9","30.43","337","3.9","8.4","0.00","0.00"
"09:59:57","52","31.8","46","30.43","344","4.7","12","0.00","0.00"
"10:04:59","51.9","31.6","45.9","30.43","343","4.9","10.8","0.00","0.00"
"10:09:58","51.8","31.9","46.3","30.43","336","4.5","13.2","0.00","0.00"
"10:14:59","51.8","31.4","45.6","30.44","356","4.7","13.2","0.00","0.00"
"10:19:57","51.7","31.2","45.5","30.44","320","4.2","8.4","0.00","0.00"
"10:24:58","51.6","30.6","44.4","30.44","333","4.4","8.4","0.00","0.00"
"10:29:59","51.6","30.1","43.5","30.44","337","5.8","12","0.00","0.00"
"10:34:59","51.6","30.6","44.5","30.44","339","5.2","13.2","0.00","0.00"
"10:39:57","51.4","31.6","46.5","30.44","344","3.4","10.4","0.00","0.00"
"10:44:58","51.3","33.2","49.7","30.45","347","3","13.2","0.00","0.00"
"10:49:59","51.2","32.8","49.1","30.45","325","3.7","12.7","0.00","0.00"
"10:54:56","51.1","33.1","50.1","30.45","338","5.2","15","0.00","0.00"
"10:59:57","50.9","34","52.3","30.45","333","4.9","10.8","0.00","0.00"
"11:04:58","50.7","34.4","53.4","30.45","327","3.7","8.4","0.00","0.00"
"11:09:57","50.6","33.7","52.2","30.45","319","3.4","10.8","0.00","0.00"
"11:14:59","50.6","34.6","54.2","30.45","297","1.3","3.6","0.00","0.00"
"11:19:57","50.7","36.1","57.3","30.45","296","1","2.4","0.00","0.00"
"11:24:58","50.7","35.7","56.3","30.45","302","2.1","4.8","0.00","0.00"
"11:29:59","50.6","34.4","53.7","30.46","329","4","7.2","0.00","0.00"
"11:34:56","50.6","35.4","55.9","30.46","307","2.2","4.8","0.00","0.00"
"11:39:57","50.6","35.2","55.4","30.46","308","2.6","6","0.00","0.00"
"11:44:59","50.7","34.6","54","30.46","294","2.9","5.8","0.00","0.00"
"11:49:56","50.8","34.5","53.6","30.46","338","3.2","10.8","0.00","0.00"
"11:54:57","51","34.3","52.7","30.46","325","3.5","12","0.00","0.00"
"11:59:57","51.2","33.6","50.8","30.46","307","3.5","7.2","0.00","0.00"
"12:04:57","51.4","34.6","52.6","30.45","341","4","8.4","0.00","0.00"
"12:09:56","51.5","34.9","52.9","30.45","332","4.3","13.2","0.00","0.00"
"12:14:57","51.6","35","52.9","30.45","320","3.9","8.4","0.00","0.00"
"12:19:58","51.9","34.6","51.7","30.45","319","5","9.6","0.00","0.00"
"12:24:59","52.2","34.2","50.2","30.45","313","4.8","10.8","0.00","0.00"
"12:29:56","52.5","34.6","50.4","30.45","295","2.8","4.8","0.00","0.00"
"12:34:57","53","34.6","49.5","30.43","343","4.7","12","0.00","0.00"
"12:39:56","53.4","34.5","48.6","30.43","334","3.8","9.6","0.00","0.00"
"12:44:57","53.8","34.7","48.4","30.43","326","4.9","12","0.00","0.00"
"12:49:57","54","33.6","45.9","30.43","323","5","10.8","0.00","0.00"
"12:54:58","53.8","33.1","45.3","30.43","303","4.9","10.8","0.00","0.00"
"12:59:59","53.4","32.4","44.7","30.43","316","5.3","12","0.00","0.00"
"13:04:59","53.1","31.3","43.1","30.43","341","4.5","8.4","0.00","0.00"
"13:09:58","53.1","32.6","45.7","30.43","334","2.6","6","0.00","0.00"
"13:14:56","53.2","32.2","44.6","30.43","314","2.2","4.6","0.00","0.00"
"13:19:57","53.3","32.3","44.6","30.43","300","3.4","7.2","0.00","0.00"
"13:24:58","53.2","31.7","43.7","30.43","309","3.7","9.6","0.00","0.00"
"13:29:59","53.1","30.9","42.6","30.45","315","4.2","10.8","0.00","0.00"
"13:34:56","52.9","30.7","42.6","30.45","315","4.8","12","0.00","0.00"
"13:39:57","52.7","30.3","42.1","30.45","317","5.1","11.5","0.00","0.00"
"13:44:57","52.5","30.1","42.1","30.45","317","4.4","12","0.00","0.00"
"13:49:58","52.5","29.7","41.5","30.44","351","3.7","10.8","0.00","0.00"
"13:54:59","52.5","30.5","42.9","30.44","326","2.8","7.2","0.00","0.00"
"13:59:56","52.6","30.6","42.8","30.44","326","3.1","8.4","0.00","0.00"
"14:04:57","52.7","30.4","42.4","30.43","339","3.8","8.4","0.00","0.00"
"14:09:56","52.7","29.9","41.4","30.43","334","4.2","12","0.00","0.00"
"14:14:57","52.7","29.1","40.1","30.43","331","4.7","8.4","0.00","0.00"
"14:19:58","52.7","29.2","40.3","30.42","305","4","8.4","0.00","0.00"
"14:24:59","52.8","29.9","41.3","30.42","324","3.5","8.1","0.00","0.00"
"14:29:59","52.9","29.8","41.1","30.43","300","3.6","7.2","0.00","0.00"
"14:34:56","52.7","28.8","39.7","30.43","295","3.6","10.8","0.00","0.00"
"14:39:57","52.4","29.1","40.4","30.43","322","3.5","8.4","0.00","0.00"
"14:44:58","52.4","29.5","41.3","30.45","295","2.5","4.8","0.00","0.00"
"14:49:58","52.4","28.2","39.2","30.45","294","3.7","9.6","0.00","0.00"
"14:54:56","52.5","29.5","41.2","30.45","321","2.8","10.8","0.00","0.00"
"14:59:56","52.7","29.4","40.5","30.45","285","3.2","7.2","0.00","0.00"
"15:04:56","52.9","29.1","39.7","30.44","295","3.6","8.4","0.00","0.00"
"15:09:59","53","29.1","39.7","30.44","322","3.9","7.2","0.00","0.00"
"15:14:56","53","28.6","38.8","30.44","312","3.4","8.4","0.00","0.00"
"15:19:57","53","28.1","38.2","30.42","289","3","8.4","0.00","0.00"
"15:24:58","53","29.2","39.8","30.42","263","2","4.8","0.00","0.00"
"15:29:59","53.1","29","39.3","30.42","249","2.9","7.2","0.00","0.00"
"15:34:56","53","28.1","38.1","30.41","244","1.1","6","0.00","0.00"
"15:39:57","53","27","36.5","30.41","343","3","6","0.00","0.00"
"15:44:58","53","26.9","36.4","30.41","353","2.7","6","0.00","0.00"
"15:49:56","53","26.5","35.8","30.40","309","3.1","6","0.00","0.00"
"15:54:56","52.9","26.3","35.5","30.40","308","3.4","8.4","0.00","0.00"
"15:59:58","52.8","26.5","35.9","30.40","268","2.1","4.8","0.00","0.00"
"16:04:59","52.7","26.6","36.2","30.40","265","1.7","6","0.00","0.00"
"16:09:58","52.7","27.5","37.6","30.40","323","2.2","4.8","0.00","0.00"
"16:14:57","52.6","27.6","37.7","30.40","302","1.2","3.6","0.00","0.00"
"16:19:58","52.6","29.2","40.5","30.40","292","1.3","3.6","0.00","0.00"
"16:24:59","52.6","27.2","37.2","30.40","335","2.3","6","0.00","0.00"
"16:29:56","52.7","28.6","39.4","30.41","336","0.8","3.6","0.00","0.00"
"16:34:57","52.8","28.9","39.8","30.41","336","1","2.4","0.00","0.00"
"16:39:59","52.9","29.9","41.2","30.41","336","0.5","2.3","0.00","0.00"
"16:44:57","53","30","41.2","30.41","316","1.1","3.6","0.00","0.00"
"16:49:58","53.1","30.9","42.6","30.40","292","1.8","4.8","0.00","0.00"
"16:54:55","53.3","30.9","42.2","30.40","275","1.7","4.8","0.00","0.00"
"16:59:57","53.8","31.9","43.2","30.40","280","1.7","3.6","0.00","0.00"
"17:04:58","53.9","31.1","41.7","30.39","260","2.5","6","0.00","0.00"
"17:09:57","53.7","31.7","43","30.39","250","1.1","3.5","0.00","0.00"
"17:14:59","53.7","31.3","42.3","30.39","250","0.8","2.4","0.00","0.00"
"17:19:56","53.7","29.7","39.7","30.38","250","0.9","2.4","0.00","0.00"
"17:24:57","53.7","29.9","40","30.38","293","1.8","6","0.00","0.00"
"17:29:59","53.5","28.6","38.1","30.38","326","1.9","4.8","0.00","0.00"
"17:34:56","53.5","28.5","38","30.38","345","2.3","4.8","0.00","0.00"
"17:39:59","53.4","29","38.9","30.38","340","1.8","4.6","0.00","0.00"
"17:44:57","53.3","29.1","39.3","30.38","327","1","2.4","0.00","0.00"
"17:49:59","53.2","31.9","44.2","30.37","317","1.4","2.4","0.00","0.00"
"17:54:57","53.1","31.4","43.5","30.37","317","1.1","2.4","0.00","0.00"
"17:59:58","53","30.8","42.6","30.38","317","0.6","2.4","0.00","0.00"
"18:04:59","53","31.3","43.4","30.38","317","0.9","2.4","0.00","0.00"
"18:09:58","53","31.1","43.1","30.38","299","1.7","3.6","0.00","0.00"
"18:14:58","53","29.7","40.7","30.39","269","1.1","3.6","0.00","0.00"
"18:19:58","53","31","43","30.39","234","2","4.8","0.00","0.00"
"18:24:59","52.9","30.5","42.3","30.39","231","1.8","4.6","0.00","0.00"
"18:29:56","52.7","31.2","43.7","30.39","230","1.4","3.6","0.00","0.00"
"18:34:57","52.6","30.4","42.5","30.39","230","1.7","3.6","0.00","0.00"
"18:39:58","52.5","31.1","44","30.39","230","1.2","3.5","0.00","0.00"
"18:44:59","52.4","30.8","43.6","30.39","230","1.6","3.6","0.00","0.00"
"18:49:56","52.4","30.6","43.1","30.38","230","1.3","3.5","0.00","0.00"
"18:54:57","52.3","30.4","42.9","30.38","230","1.2","3.6","0.00","0.00"
"18:59:58","52.3","30.2","42.6","30.39","230","1.1","2.4","0.00","0.00"
"19:04:58","52.3","31.2","44.3","30.39","230","0.2","2.4","0.00","0.00"
"19:09:58","52.2","31.5","45.2","30.39","230","0.8","2.4","0.00","0.00"
"19:14:56","52.1","32.2","46.5","30.39","230","0.1","1.2","0.00","0.00"
"19:19:58","51.9","31.9","46.2","30.39","230","0.2","1.2","0.00","0.00"
"19:24:59","51.8","32.7","48","30.39","241","0","1.2","0.00","0.00"
"19:29:57","51.7","31.9","46.6","30.39","240","0","1.2","0.00","0.00"
"19:34:58","51.5","31.4","46.1","30.39","240","0","0","0.00","0.00"
"19:39:56","51.4","31.8","47.1","30.39","240","0","1.2","0.00","0.00"
"19:44:58","51.2","31.5","46.8","30.39","241","0","0","0.00","0.00"
"19:49:56","51","32.3","48.7","30.39","240","0","0","0.00","0.00"
"19:54:59","50.8","33.2","50.9","30.39","240","0","0","0.00","0.00"
"19:59:57","50.6","32.5","49.8","30.39","241","0","0","0.00","0.00"
"20:04:58","50.4","32.8","50.9","30.39","241","0","0","0.00","0.00"
"20:09:58","50.2","32.1","49.6","30.39","241","0","0","0.00","0.00"
"20:14:57","49.9","31.5","48.8","30.39","240","0","0","0.00","0.00"
"20:19:59","49.8","34.3","55","30.39","241","0","0","0.00","0.00"
"20:24:57","49.5","33.6","54","30.39","241","0","0","0.00","0.00"
"20:29:56","49.3","33.5","54.3","30.40","241","0","0","0.00","0.00"
"20:34:58","49.2","34.2","56.1","30.40","241","0","0","0.00","0.00"
"20:39:57","49","33.8","55.6","30.40","241","0","0","0.00","0.00"
"20:44:56","48.9","33.2","54.7","30.41","241","0","0","0.00","0.00"
"20:49:58","48.8","34.2","56.9","30.41","241","0","0","0.00","0.00"
"20:54:56","48.8","35.6","60.2","30.41","241","0","0","0.00","0.00"
"20:59:58","48.6","35.5","60.6","30.42","241","0","0","0.00","0.00"
"21:04:56","48.3","34.7","59.1","30.42","241","0","0","0.00","0.00"
"21:09:56","48.2","34.5","59","30.42","241","0","0","0.00","0.00"
"21:14:59","48.1","35","60.5","30.42","241","0","0","0.00","0.00"
"21:19:57","48","35.5","61.8","30.42","241","0","0","0.00","0.00"
"21:24:56","47.9","35.5","62","30.42","241","0","0","0.00","0.00"
"21:29:58","47.7","35.9","63.5","30.42","241","0","0","0.00","0.00"
"21:34:57","47.6","36.1","64.3","30.42","241","0","0","0.00","0.00"
"21:39:56","47.4","36.1","64.7","30.42","241","0","0","0.00","0.00"
"21:44:58","47.3","36","64.8","30.42","241","0","0","0.00","0.00"
"21:49:57","47.2","36","65","30.42","241","0","0","0.00","0.00"
"21:54:59","47","36.2","65.9","30.42","241","0","0","0.00","0.00"
"21:59:58","46.8","36.4","66.8","30.42","241","0","0","0.00","0.00"
"22:04:59","46.7","36.6","67.8","30.42","241","0","0","0.00","0.00"
"22:09:59","46.4","36.4","68","30.42","241","0","0","0.00","0.00"
"22:14:58","46.3","36.1","67.5","30.42","241","0","0","0.00","0.00"
"22:19:56","46.1","35.9","67.4","30.42","241","0","0","0.00","0.00"
"22:24:58","46","36.2","68.6","30.42","241","0","0","0.00","0.00"
"22:29:56","45.9","36.7","70","30.43","241","0","0","0.00","0.00"
"22:34:58","45.8","36.7","70.3","30.43","241","0","0","0.00","0.00"
"22:39:57","45.8","36.8","70.7","30.43","241","0","0","0.00","0.00"
"22:44:59","45.8","36.9","71","30.43","241","0","0","0.00","0.00"
"22:49:57","45.7","37.2","72","30.42","241","0","0","0.00","0.00"
"22:54:56","45.5","37.4","73.3","30.42","241","0","0","0.00","0.00"
"22:59:58","45.3","36.8","71.9","30.42","241","0","0","0.00","0.00"
"23:04:59","45.1","36.5","71.5","30.42","241","0","0","0.00","0.00"
"23:09:59","45","36.4","71.7","30.42","241","0","0","0.00","0.00"
"23:14:58","45","36.8","73","30.42","241","0","0","0.00","0.00"
"23:19:56","44.9","37","73.5","30.42","241","0","0","0.00","0.00"
"23:24:57","44.8","37.1","74.3","30.42","241","1.1","2.4","0.00","0.00"
"23:29:56","44.7","37","74","30.42","241","0.7","2.4","0.00","0.00"
"23:34:59","44.6","36.6","73.2","30.42","241","0.3","2.4","0.00","0.00"
"23:39:57","44.5","36","71.8","30.42","246","0","3.6","0.00","0.00"
"23:44:56","44.6","36","71.7","30.42","251","0.7","3.5","0.00","0.00"
